Location: 3 Angels Observatory
(30.5437°N, 88.5068°W)
Time: 04:03:56
(UTC-05:00)

Amateur Radio Satellites - All Passes

Search period start: 29 June 2016 03:33
Search period end: 30 June 2016 03:33
Location: 3 Angels Observatory, 30.5437°N, 88.5068°W

Satellite Date Start Highest point End Downlink Frequencies (MHz)
Time Altitude Azimuth
AO-7 29 Jun 03:43:03 03:50:20 32° 99° (E) 03:57:31 29.400- 29.500
STARS 29 Jun 03:56:51 04:00:43 32° 73° (ENE) 04:04:37 437.465
AIST 2 29 Jun 04:10:31 04:14:14 34° 112° (ESE) 04:17:58 435.215
AIST 1 29 Jun 04:23:12 04:27:23 56° 83° (E) 04:31:34
GONETS M04 29 Jun 04:24:44 04:29:35 16° 70° (ENE) 04:34:23
Gurwin Techsat 1B 29 Jun 04:31:18 04:33:13 12° 295° (WNW) 04:35:10 435.225
ITAMSAT 1 29 Jun 04:31:39 04:36:18 33° 289° (WNW) 04:40:55 435.822/435.867
CUBESAT XI-V 29 Jun 04:48:35 04:52:19 24° 71° (ENE) 04:56:02 437.345
HORYU 2 29 Jun 04:48:35 04:51:32 17° 96° (E) 04:54:26 437.375
MOZHAYETS 4 29 Jun 04:56:35 05:00:23 25° 263° (W) 05:04:13
KKS-1 29 Jun 05:03:28 05:06:25 17° 264° (W) 05:09:22 437.445
PHONESAT 2.4 29 Jun 05:31:56 05:34:51 43° 146° (SE) 05:37:46 2401.200-2431.200
STARS 29 Jun 05:34:29 05:37:06 16° 265° (W) 05:39:43 437.465
AO-7 29 Jun 05:35:14 05:43:05 46° 293° (WNW) 05:50:55 29.400- 29.500
AIST 2 29 Jun 05:50:13 05:52:46 16° 306° (NW) 05:55:21 435.215
Cosmos 2499 29 Jun 05:51:57 06:00:09 45° 78° (ENE) 06:07:47 435.465 / 435.565
NOAA 15 29 Jun 06:03:09 06:07:10 22° 96° (E) 06:11:10 137.62
GONETS M04 29 Jun 06:18:30 06:27:15 83° 265° (W) 06:36:01
STRAND 1 29 Jun 06:23:22 06:26:36 17° 67° (ENE) 06:29:52 437.568
HORYU 2 29 Jun 06:24:04 06:28:04 32° 288° (WNW) 06:32:04 437.375
CUBESAT XI-V 29 Jun 06:25:38 06:29:31 26° 263° (W) 06:33:25 437.345
CUSAT 1 29 Jun 06:33:46 06:40:15 29° 91° (E) 06:46:08 437.405
AO-85 29 Jun 06:40:35 06:44:44 42° 59° (ENE) 06:48:34 145.980
NOAA 18 29 Jun 06:40:42 06:45:58 43° 100° (E) 06:51:12 137.9125
Cubesat XI-IV 29 Jun 06:41:36 06:46:38 39° 99° (E) 06:51:38 437.490
DOVE 4 29 Jun 06:50:05 06:51:36 11° 95° (E) 06:53:08 437.250
BRITE-PL 29 Jun 06:57:51 07:02:00 88° 288° (WNW) 07:06:16 437.365/2234.400
DANDE 29 Jun 07:01:38 07:08:02 25° 87° (E) 07:14:16 436.750
PHONESAT 2.4 29 Jun 07:08:53 07:11:32 26° 340° (NNW) 07:14:10 2401.200-2431.200
CUTE-I 29 Jun 07:15:29 07:20:54 90° 97° (E) 07:26:15 437.470
LilacSat-2 29 Jun 07:16:35 07:20:28 69° 283° (WNW) 07:24:19 437.200
GOMX 1 29 Jun 07:28:07 07:32:23 86° 105° (ESE) 07:36:53 467.674
PRISM 29 Jun 07:37:32 07:38:37 11° 67° (ENE) 07:39:42 437.425
CINEMA 3 29 Jun 07:40:47 07:42:53 13° 94° (E) 07:45:01 145.822/145.860
NOAA 15 29 Jun 07:42:15 07:46:55 34° 289° (WNW) 07:51:34 137.62
Cosmos 2499 29 Jun 07:45:37 07:52:50 31° 275° (W) 07:59:41 435.465 / 435.565
STRAND 1 29 Jun 08:00:30 08:05:22 44° 260° (W) 08:10:17 437.568
HO-68 29 Jun 08:13:04 08:19:32 35° 99° (E) 08:25:56 435.675
ISS 29 Jun 08:14:27 08:17:37 49° 316° (NW) 08:20:48 145.825
CUSAT 1 29 Jun 08:14:32 08:22:05 47° 280° (W) 08:28:44 437.405
GONETS M04 29 Jun 08:20:38 08:22:39 11° 281° (WNW) 08:24:40
CANX-2 29 Jun 08:22:07 08:26:06 37° 98° (E) 08:30:02 2200.000
NOAA 18 29 Jun 08:22:18 08:26:15 20° 293° (WNW) 08:30:11 137.9125
Cubesat XI-IV 29 Jun 08:22:30 08:26:22 20° 292° (WNW) 08:30:13 437.490
COMPASS 1 29 Jun 08:22:43 08:24:58 14° 94° (E) 08:27:12 437.405
AO-85 29 Jun 08:23:25 08:24:35 11° 254° (WSW) 08:25:45 145.980
DOVE 4 29 Jun 08:25:09 08:29:23 47° 285° (WNW) 08:33:51 437.250
CUTE 1.7 + AOD 2 29 Jun 08:41:47 08:46:00 57° 100° (E) 08:50:10 437.475
DANDE 29 Jun 08:42:06 08:50:21 62° 279° (W) 08:58:17 436.750
SEEDS 29 Jun 08:44:39 08:48:40 41° 99° (E) 08:52:38 437.485
PHONESAT 2.4 29 Jun 08:47:15 08:48:47 13° 357° (N) 08:50:20 2401.200-2431.200
AUBIESAT-1 29 Jun 09:01:29 09:03:18 13° 100° (E) 09:05:10 437.475
CUBEBUG 2 29 Jun 09:08:11 09:12:32 38° 98° (E) 09:16:56 437.445
PRISM 29 Jun 09:09:29 09:13:28 45° 260° (W) 09:17:27 437.425
CINEMA 3 29 Jun 09:15:40 09:20:06 47° 285° (WNW) 09:24:43 145.822/145.860
AAUSAT CUBESAT 2 29 Jun 09:21:38 09:25:46 66° 101° (E) 09:29:51 437.432
ZACube-1 29 Jun 09:31:39 09:35:39 30° 97° (E) 09:39:39 437.345
M-CUBED/EXP-1 PRIME 29 Jun 09:39:25 09:43:21 48° 105° (ESE) 09:47:34 437.505
Oscar 11 29 Jun 09:40:03 09:44:07 38° 99° (E) 09:48:09 145.826/435.025
FUNcube-1 29 Jun 09:48:30 09:52:52 44° 99° (E) 09:57:14 145.935
UWE-3 29 Jun 09:53:49 09:58:28 89° 103° (ESE) 10:03:09 435.000/436.395/437.385
COMPASS 1 29 Jun 09:56:49 10:00:33 32° 287° (WNW) 10:04:16 437.405
CANX-2 29 Jun 09:59:25 10:01:34 14° 291° (WNW) 10:03:42 2200.000
HO-68 29 Jun 10:00:42 10:07:05 36° 293° (WNW) 10:13:30 435.675
RS-15 29 Jun 10:05:59 10:14:18 25° 102° (ESE) 10:22:52 29.354- 29.394
TIGRISAT 29 Jun 10:06:37 10:10:28 34° 73° (ENE) 10:14:24 435.000
UNISAT 6 29 Jun 10:11:48 10:15:50 42° 74° (ENE) 10:19:58 437.425
SEEDS 29 Jun 10:22:21 10:23:56 12° 292° (WNW) 10:25:30 437.485
PHONESAT 2.4 29 Jun 10:23:58 10:26:10 18° 14° (NNE) 10:28:22 2401.200-2431.200
AUBIESAT-1 29 Jun 10:33:56 10:37:45 41° 289° (WNW) 10:41:49 437.475
QB50P2 29 Jun 10:36:29 10:37:57 12° 68° (ENE) 10:39:26 145.880/145.840
HUMSAT D 29 Jun 10:38:03 10:42:00 35° 98° (E) 10:45:56 437.325/437.525
POLYITAN 1 29 Jun 10:39:00 10:40:35 12° 68° (ENE) 10:42:10 437.675
CUBEBUG 2 29 Jun 10:45:54 10:48:48 17° 290° (WNW) 10:51:43 437.445
ANTELSAT 29 Jun 10:51:23 10:55:35 59° 259° (W) 10:59:54 437.575/2403.000
PCSat 29 Jun 11:01:51 11:06:19 25° 58° (ENE) 11:10:45 145.827
DELFI C3 29 Jun 11:02:13 11:05:58 41° 285° (WNW) 11:09:41 145.870
ZACube-1 29 Jun 11:08:23 11:11:41 20° 290° (WNW) 11:14:59 437.345
BEESAT 3 29 Jun 11:08:48 11:11:39 19° 55° (NE) 11:14:30 437.485
JAS-2 29 Jun 11:10:26 11:13:32 13° 63° (ENE) 11:16:33 435.910
M-CUBED/EXP-1 PRIME 29 Jun 11:16:22 11:17:33 11° 295° (WNW) 11:18:45 437.505
Oscar 11 29 Jun 11:17:39 11:19:52 14° 291° (WNW) 11:22:04 145.826/435.025
YUBILEINY 29 Jun 11:22:39 11:27:14 16° 81° (E) 11:31:48 435.215
FUNcube-1 29 Jun 11:26:26 11:28:41 14° 292° (WNW) 11:30:55 145.935
BUGSAT 1 29 Jun 11:28:40 11:31:18 17° 70° (ENE) 11:33:57 437.445
CUBEBUG 1 29 Jun 11:29:05 11:31:01 13° 94° (E) 11:32:56 437.445
50 SAT 29 Jun 11:31:18 11:32:29 11° 94° (E) 11:33:40 437.505
VELOX 1 29 Jun 11:38:45 11:41:23 16° 95° (E) 11:44:01 145.980
Cosmos 2491 29 Jun 11:40:38 11:48:59 48° 80° (E) 11:57:17 435.465 / 435.565
TIGRISAT 29 Jun 11:44:55 11:47:14 14° 266° (W) 11:49:34 435.000
BEESAT 2 29 Jun 11:47:50 11:51:17 28° 57° (ENE) 11:54:44 435.950
NANOSAT C BR1 29 Jun 11:49:46 11:53:56 88° 259° (W) 11:58:08 145.865
UNISAT 6 29 Jun 11:51:23 11:52:43 11° 267° (W) 11:54:05 437.425
QB50P1 29 Jun 11:53:17 11:57:27 75° 259° (W) 12:01:38 145.935-145.965
POPSAT HIP 1 29 Jun 11:56:36 12:00:45 69° 259° (W) 12:04:56 437.405
PHONESAT 2.4 29 Jun 12:00:01 12:03:06 78° 30° (NNE) 12:06:10 2401.200-2431.200
QB50P2 29 Jun 12:09:22 12:13:20 42° 261° (W) 12:17:20 145.880/145.840
DUCHIFAT 1 29 Jun 12:10:06 12:14:07 50° 260° (W) 12:18:11 145.980
POLYITAN 1 29 Jun 12:12:01 12:15:58 41° 261° (W) 12:19:56 437.675
RS-15 29 Jun 12:14:12 12:25:26 73° 299° (WNW) 12:37:22 29.354- 29.394
UKube-1 29 Jun 12:14:17 12:17:48 24° 97° (E) 12:21:20 .
SPROUT 29 Jun 12:14:43 12:17:32 17° 95° (E) 12:20:20 437.525
HUMSAT D 29 Jun 12:14:54 12:17:16 15° 291° (WNW) 12:19:39 437.325/437.525
ESTCUBE 1 29 Jun 12:17:35 12:22:05 86° 104° (ESE) 12:26:33 437.505/2401.250
AISAT 29 Jun 12:18:16 12:22:33 52° 100° (E) 12:26:50 437.250
DX 1 29 Jun 12:35:12 12:39:29 60° 101° (E) 12:43:45 434.975-435.025
PCSat 29 Jun 12:44:51 12:49:40 33° 252° (WSW) 12:54:28 145.827
BEESAT 3 29 Jun 12:45:59 12:49:16 25° 249° (WSW) 12:52:31 437.485
JAS-2 29 Jun 12:49:54 12:57:42 84° 76° (ENE) 13:04:54 435.910
50 SAT 29 Jun 13:02:58 13:06:12 30° 286° (WNW) 13:09:24 437.505
BUGSAT 1 29 Jun 13:03:07 13:06:27 25° 262° (W) 13:09:47 437.445
CUBEBUG 1 29 Jun 13:03:22 13:07:23 39° 286° (WNW) 13:11:24 437.445
VELOX 1 29 Jun 13:13:56 13:17:52 33° 287° (WNW) 13:21:49 145.980
YUBILEINY 29 Jun 13:14:10 13:22:52 80° 276° (W) 13:31:39 435.215
O/OREOS (USA 219) 29 Jun 13:17:35 13:22:01 66° 254° (WSW) 13:26:28 437.305
BEESAT 2 29 Jun 13:26:16 13:28:52 17° 251° (WSW) 13:31:26 435.950
TISAT 1 29 Jun 13:30:50 13:34:37 31° 98° (E) 13:38:22 437.305
Cosmos 2491 29 Jun 13:38:15 13:45:19 29° 275° (W) 13:52:26 435.465 / 435.565
PHONESAT 2.4 29 Jun 13:38:24 13:39:22 11° 221° (SW) 13:40:21 2401.200-2431.200
Oscar 19 29 Jun 13:39:33 13:44:42 86° 77° (ENE) 13:49:52 437.125/150
Cosmos 2504 29 Jun 13:47:27 13:55:04 52° 89° (E) 14:03:15 435.465 / 435.565
SPROUT 29 Jun 13:49:44 13:53:27 29° 287° (WNW) 13:57:09 437.525
UKube-1 29 Jun 13:50:28 13:53:40 21° 290° (WNW) 13:56:51 .
JUGNU 29 Jun 13:52:18 13:56:11 18° 165° (SSE) 14:00:04 437.505
AISAT 29 Jun 13:57:36 13:58:31 11° 293° (WNW) 13:59:25 437.250
Gurwin Techsat 1B 29 Jun 14:04:01 14:09:14 61° 74° (ENE) 14:14:28 435.225
ITAMSAT 1 29 Jun 14:05:46 14:09:29 20° 68° (ENE) 14:13:13 435.822/435.867
AIST 2 29 Jun 14:14:51 14:18:58 61° 61° (ENE) 14:23:04 435.215
SWISSCUBE 29 Jun 14:24:38 14:28:34 25° 97° (E) 14:32:27 437.505
RS-15 29 Jun 14:32:49 14:40:25 19° 324° (NW) 14:48:18 29.354- 29.394
AO-7 29 Jun 14:36:34 14:43:16 28° 62° (ENE) 14:49:56 29.400- 29.500
JAS-2 29 Jun 14:39:13 14:43:00 14° 267° (W) 14:46:41 435.910
ISS 29 Jun 14:47:40 14:49:13 13° 34° (NE) 14:50:45 145.825
BEESAT 29 Jun 14:49:17 14:53:50 43° 100° (E) 14:58:21 436.000
ITUPSAT 1 29 Jun 14:50:58 14:55:34 44° 100° (E) 15:00:06 437.325
TISAT 1 29 Jun 15:07:27 15:09:57 16° 291° (WNW) 15:12:27 437.305
SRMSAT 29 Jun 15:10:33 15:12:31 12° 161° (SSE) 15:14:28 437.500
SO-50 29 Jun 15:17:11 15:22:01 68° 115° (ESE) 15:26:53 436.795
YUBILEINY 29 Jun 15:18:32 15:20:55 11° 293° (WNW) 15:23:19 435.215
JUGNU 29 Jun 15:39:40 15:44:40 28° 174° (S) 15:49:40 437.505
Cosmos 2504 29 Jun 15:42:14 15:48:44 26° 287° (WNW) 15:55:37 435.465 / 435.565
ITAMSAT 1 29 Jun 15:43:49 15:48:37 38° 261° (W) 15:53:28 435.822/435.867
Gurwin Techsat 1B 29 Jun 15:47:30 15:49:28 12° 267° (W) 15:51:27 435.225
SWISSCUBE 29 Jun 16:02:19 16:06:12 25° 290° (WNW) 16:10:04 437.505
ISS 29 Jun 16:22:41 16:25:52 52° 228° (SW) 16:29:02 145.825
AO-7 29 Jun 16:27:23 16:35:28 55° 257° (WSW) 16:43:38 29.400- 29.500
BEESAT 29 Jun 16:28:29 16:31:12 15° 293° (WNW) 16:33:54 436.000
ITUPSAT 1 29 Jun 16:30:17 16:32:57 15° 293° (WNW) 16:35:37 437.325
AIST 1 29 Jun 16:46:30 16:50:36 43° 92° (E) 16:54:42
MOZHAYETS 4 29 Jun 16:56:16 17:00:53 70° 284° (WNW) 17:05:28
SRMSAT 29 Jun 16:56:32 17:01:06 23° 169° (S) 17:05:41 437.500
KKS-1 29 Jun 16:58:14 17:02:36 59° 285° (WNW) 17:06:58 437.445
SO-50 29 Jun 17:00:44 17:02:56 13° 310° (NW) 17:05:08 436.795
HORYU 2 29 Jun 17:15:49 17:20:12 72° 258° (WSW) 17:24:38 437.375
NOAA 15 29 Jun 17:18:02 17:21:57 21° 68° (ENE) 17:25:51 137.62
GONETS M04 29 Jun 17:18:35 17:24:49 22° 83° (E) 17:31:00
STARS 29 Jun 17:27:23 17:31:42 55° 285° (WNW) 17:36:01 437.465
JUGNU 29 Jun 17:28:10 17:33:14 28° 184° (S) 17:38:16 437.505
LilacSat-2 29 Jun 17:53:36 17:56:37 23° 73° (ENE) 17:59:41 437.200
Cubesat XI-IV 29 Jun 17:58:07 18:02:59 38° 72° (ENE) 18:07:54 437.490
NOAA 18 29 Jun 18:01:28 18:06:40 47° 72° (ENE) 18:11:53 137.9125
BRITE-PL 29 Jun 18:02:27 18:07:31 58° 76° (ENE) 18:12:13 437.365/2234.400
Cosmos 2499 29 Jun 18:20:33 18:28:01 41° 87° (E) 18:35:56 435.465 / 435.565
CUBESAT XI-V 29 Jun 18:26:56 18:31:30 65° 284° (WNW) 18:36:02 437.345
AIST 1 29 Jun 18:27:26 18:28:21 11° 285° (WNW) 18:29:17
GOMX 1 29 Jun 18:30:44 18:35:15 48° 76° (ENE) 18:39:31 467.674
CUTE-I 29 Jun 18:31:34 18:36:54 85° 74° (ENE) 18:42:16 437.470
HO-68 29 Jun 18:38:42 18:42:13 14° 60° (ENE) 18:45:44 435.675
SRMSAT 29 Jun 18:44:43 18:49:48 29° 179° (S) 18:54:51 437.500
NOAA 15 29 Jun 18:56:34 19:01:25 37° 261° (W) 19:06:17 137.62
CUSAT 1 29 Jun 18:58:12 19:01:22 76° 262° (W) 19:04:02 437.405
CANX-2 29 Jun 19:10:57 19:13:07 14° 69° (ENE) 19:15:17 2200.000
RS-15 29 Jun 19:11:59 19:20:50 22° 39° (NE) 19:29:35 29.354- 29.394
GONETS M04 29 Jun 19:12:18 19:20:52 60° 278° (W) 19:29:26
JUGNU 29 Jun 19:17:35 19:21:43 19° 194° (SSW) 19:25:50 437.505
DOVE 4 29 Jun 19:25:04 19:29:29 89° 65° (ENE) 19:33:42 437.250
LilacSat-2 29 Jun 19:28:33 19:30:52 16° 265° (W) 19:33:11 437.200
CUTE 1.7 + AOD 2 29 Jun 19:29:38 19:32:46 20° 71° (ENE) 19:35:55 437.475
DANDE 29 Jun 19:31:47 19:36:04 82° 81° (E) 19:39:19 436.750
SEEDS 29 Jun 19:32:12 19:34:35 15° 69° (ENE) 19:37:00 437.485
Cubesat XI-IV 29 Jun 19:39:12 19:43:05 20° 264° (W) 19:47:00 437.490
NOAA 18 29 Jun 19:44:02 19:47:27 17° 265° (W) 19:50:55 137.9125
BRITE-PL 29 Jun 19:44:34 19:46:06 11° 266° (W) 19:47:34 437.365/2234.400
CUBEBUG 2 29 Jun 20:02:34 20:04:53 15° 69° (ENE) 20:07:13 437.445
AAUSAT CUBESAT 2 29 Jun 20:06:58 20:10:06 21° 71° (ENE) 20:13:15 437.432
CINEMA 3 29 Jun 20:11:50 20:15:59 80° 77° (ENE) 20:20:08 145.822/145.860
GOMX 1 29 Jun 20:12:00 20:13:26 11° 265° (W) 20:14:50 467.674
Cosmos 2499 29 Jun 20:13:47 20:21:04 35° 284° (WNW) 20:28:49 435.465 / 435.565
STRAND 1 29 Jun 20:16:24 20:21:34 81° 283° (WNW) 20:26:41 437.568
HO-68 29 Jun 20:21:50 20:28:59 85° 255° (WSW) 20:36:12 435.675
M-CUBED/EXP-1 PRIME 29 Jun 20:22:37 20:24:56 18° 68° (ENE) 20:27:15 437.505
ZACube-1 29 Jun 20:24:38 20:25:46 11° 67° (ENE) 20:26:54 437.345
Oscar 11 29 Jun 20:30:34 20:33:07 15° 69° (ENE) 20:35:39 145.826/435.025
SRMSAT 29 Jun 20:33:44 20:38:29 25° 189° (S) 20:43:12 437.500
FUNcube-1 29 Jun 20:39:52 20:42:29 16° 69° (ENE) 20:45:09 145.935
COMPASS 1 29 Jun 20:41:06 20:45:18 76° 78° (ENE) 20:49:31 437.405
CANX-2 29 Jun 20:44:38 20:48:34 37° 261° (W) 20:52:35 2200.000
UWE-3 29 Jun 20:45:40 20:49:24 33° 73° (ENE) 20:53:12 435.000/436.395/437.385
AO-85 29 Jun 20:47:40 20:53:01 61° 114° (ESE) 20:58:18 145.980
PRISM 29 Jun 20:56:38 21:00:21 34° 99° (E) 21:04:04 437.425
CUTE 1.7 + AOD 2 29 Jun 21:04:54 21:08:24 25° 264° (W) 21:11:56 437.475
SEEDS 29 Jun 21:06:06 21:09:57 34° 262° (W) 21:13:50 437.485
AUBIESAT-1 29 Jun 21:15:25 21:18:44 83° 258° (WSW) 21:22:02 437.475
RS-15 29 Jun 21:23:05 21:35:32 79° 63° (ENE) 21:47:41 29.354- 29.394
HUMSAT D 29 Jun 21:25:50 21:27:31 12° 68° (ENE) 21:29:12 437.325/437.525
CUBEBUG 2 29 Jun 21:37:28 21:41:10 32° 262° (W) 21:44:58 437.445
DELFI C3 29 Jun 21:42:04 21:45:56 47° 75° (ENE) 21:49:49 145.870
AAUSAT CUBESAT 2 29 Jun 21:42:04 21:45:24 23° 264° (W) 21:48:45 437.432
ZACube-1 29 Jun 21:57:34 22:01:33 45° 261° (W) 22:05:39 437.345
M-CUBED/EXP-1 PRIME 29 Jun 21:57:35 21:59:25 14° 259° (W) 22:01:15 437.505
Oscar 11 29 Jun 22:04:58 22:08:54 34° 262° (W) 22:12:52 145.826/435.025
TIGRISAT 29 Jun 22:05:12 22:07:11 12° 93° (E) 22:09:09 435.000
UNISAT 6 29 Jun 22:10:02 22:12:50 16° 94° (E) 22:15:39 437.425
FUNcube-1 29 Jun 22:14:48 22:18:26 29° 263° (W) 22:22:10 145.935
UWE-3 29 Jun 22:23:45 22:25:55 14° 266° (W) 22:28:07 435.000/436.395/437.385
SRMSAT 29 Jun 22:24:12 22:27:04 14° 198° (SSW) 22:29:56 437.500
AO-85 29 Jun 22:30:26 22:33:51 17° 308° (NW) 22:37:11 145.980
PRISM 29 Jun 22:33:23 22:35:19 13° 292° (WNW) 22:37:13 437.425
ANTELSAT 29 Jun 22:48:20 22:52:49 44° 99° (E) 22:57:18 437.575/2403.000
HUMSAT D 29 Jun 22:58:49 23:02:43 40° 261° (W) 23:06:40 437.325/437.525
UKube-1 29 Jun 23:05:57 23:06:54 11° 67° (ENE) 23:07:51 .
AISAT 29 Jun 23:10:42 23:14:10 23° 71° (ENE) 23:17:39 437.250
ESTCUBE 1 29 Jun 23:11:28 23:15:40 38° 74° (ENE) 23:19:53 437.505/2401.250
DX 1 29 Jun 23:25:39 23:29:12 25° 71° (ENE) 23:32:45 434.975-435.025
YUBILEINY 29 Jun 23:31:44 23:39:54 40° 78° (ENE) 23:47:59 435.215
50 SAT 29 Jun 23:34:43 23:38:15 44° 75° (ENE) 23:41:48 437.505
RS-15 29 Jun 23:37:58 23:46:38 23° 259° (W) 23:55:14 29.354- 29.394
TIGRISAT 29 Jun 23:39:31 23:44:00 48° 285° (WNW) 23:48:31 435.000
NANOSAT C BR1 29 Jun 23:40:21 23:43:42 22° 97° (E) 23:47:03 145.865
QB50P1 29 Jun 23:43:57 23:47:33 26° 97° (E) 23:51:09 145.935-145.965
UNISAT 6 29 Jun 23:45:16 23:49:36 38° 286° (WNW) 23:53:57 437.425
POPSAT HIP 1 29 Jun 23:47:14 23:50:56 28° 98° (E) 23:54:39 437.405
Cosmos 2504 29 Jun 23:50:07 23:53:55 13° 67° (ENE) 23:57:38 435.465 / 435.565
CUBEBUG 1 29 Jun 23:53:07 23:57:28 81° 76° (ENE) 00:01:50 437.445
SO-50 29 Jun 23:55:52 23:58:18 14° 50° (NE) 00:00:43 436.795
QB50P2 29 Jun 23:59:35 00:03:42 45° 100° (E) 00:07:47 145.880/145.840
DUCHIFAT 1 29 Jun 23:59:43 00:03:39 36° 99° (E) 00:07:35 145.980
POLYITAN 1 30 Jun 00:02:12 00:06:19 46° 99° (E) 00:10:27 437.675
VELOX 1 30 Jun 00:04:55 00:09:20 79° 258° (WSW) 00:13:45 145.980
TISAT 1 30 Jun 00:19:14 00:20:43 12° 68° (ENE) 00:22:11 437.305
ANTELSAT 30 Jun 00:26:37 00:29:06 14° 292° (WNW) 00:31:34 437.575/2403.000
Cosmos 2491 30 Jun 00:34:09 00:42:49 67° 92° (E) 00:51:27 435.465 / 435.565
SPROUT 30 Jun 00:36:53 00:41:08 82° 259° (W) 00:45:23 437.525
UKube-1 30 Jun 00:38:17 00:42:27 50° 260° (W) 00:46:39 .
AISAT 30 Jun 00:47:01 00:50:30 23° 263° (W) 00:53:59 437.250
BUGSAT 1 30 Jun 00:49:24 00:53:30 66° 102° (ESE) 00:57:38 437.445
ESTCUBE 1 30 Jun 00:50:06 00:52:33 14° 266° (W) 00:55:01 437.505/2401.250
BEESAT 3 30 Jun 00:55:48 00:57:11 12° 108° (ESE) 00:58:34 437.485
DX 1 30 Jun 01:02:03 01:05:17 20° 263° (W) 01:08:33 434.975-435.025
NANOSAT C BR1 30 Jun 01:16:00 01:19:16 22° 289° (WNW) 01:22:32 145.865
QB50P1 30 Jun 01:20:07 01:23:06 19° 290° (WNW) 01:26:06 145.935-145.965
POPSAT HIP 1 30 Jun 01:23:37 01:26:27 18° 290° (WNW) 01:29:18 437.405
SWISSCUBE 30 Jun 01:26:38 01:29:32 16° 68° (ENE) 01:32:26 437.505
YUBILEINY 30 Jun 01:28:40 01:36:26 36° 273° (W) 01:44:11 435.215
SO-50 30 Jun 01:34:38 01:39:05 51° 246° (WSW) 01:43:23 436.795
BEESAT 2 30 Jun 01:35:06 01:37:55 19° 110° (ESE) 01:40:44 435.950
DUCHIFAT 1 30 Jun 01:36:50 01:38:58 14° 291° (WNW) 01:41:07 145.980
PCSat 30 Jun 01:36:54 01:42:16 72° 112° (ESE) 01:47:41 145.827
QB50P2 30 Jun 01:37:38 01:39:02 11° 292° (WNW) 01:40:27 145.880/145.840
Cosmos 2504 30 Jun 01:39:39 01:48:31 86° 85° (E) 01:56:52 435.465 / 435.565
POLYITAN 1 30 Jun 01:40:22 01:41:40 11° 292° (WNW) 01:42:58 437.675
O/OREOS (USA 219) 30 Jun 01:45:36 01:49:24 27° 103° (ESE) 01:53:12 437.305
BEESAT 30 Jun 01:50:32 01:54:29 27° 71° (ENE) 01:58:28 436.000
JAS-2 30 Jun 01:51:58 01:57:20 64° 286° (WNW) 02:02:27 435.910
TISAT 1 30 Jun 01:52:01 01:55:56 41° 261° (W) 01:59:53 437.305
ITUPSAT 1 30 Jun 01:52:31 01:56:32 27° 71° (ENE) 02:00:35 437.325
Oscar 19 30 Jun 01:56:55 02:01:52 48° 100° (E) 02:06:48 437.125/150
Gurwin Techsat 1B 30 Jun 02:26:09 02:31:06 38° 99° (E) 02:36:01 435.225
ITAMSAT 1 30 Jun 02:26:37 02:27:19 10° 93° (E) 02:28:02 435.822/435.867
BEESAT 3 30 Jun 02:30:49 02:34:27 37° 301° (WNW) 02:38:08 437.485
Cosmos 2491 30 Jun 02:34:03 02:40:10 21° 288° (WNW) 02:46:20 435.465 / 435.565
SWISSCUBE 30 Jun 03:02:27 03:06:56 40° 261° (W) 03:11:27 437.505
BEESAT 2 30 Jun 03:12:16 03:15:33 25° 303° (WNW) 03:18:51 435.950
PCSat 30 Jun 03:23:39 03:26:10 13° 308° (NW) 03:28:41 145.827
O/OREOS (USA 219) 30 Jun 03:25:25 03:28:44 20° 296° (WNW) 03:32:03 437.305
